Location: Bodest
(46.3000°N, 22.5667°E)
Time: 20:08:05
(UTC+00:00)

Meteor 1-21 Rocket - Pass Details

Date: 16 October 2021
Orbit: 834 x 906 km, 81.2° (Epoch: 29 November)

Event Time Altitude Azimuth Distance (km) Brightness Sun altitude
Rises 16:32:49 0° 352° (N) 3,488 7.5 -9.6°
Reaches altitude 10° 16:35:19 10° 356° (N) 2,556 6.7 -10.1°
Maximum altitude 16:41:03 57° 75° (ENE) 1,047 4.4 -11.0°
Drops below altitude 10° 16:46:50 10° 154° (SSE) 2,575 6.5 -12.0°
Sets 16:49:20 0° 158° (SSE) 3,516 7.2 -12.5°
